[[{"header":{"parameterUnit":"m.s-1","parameterCategory":1,"la1":30.2991,"la2":30.254,"lo1":-89.0895,"lo2":-89.0444,"dy":0.0017,"dx":0.0017,"nx":28,"ny":28,"refTime":"2026-02-15T03:00:00:Z","depth":0,"parameterNumber":2,"parameterNumberName":"U-component_of_WINDS"},"data":[0,0,0,0,0,0,0,0,0,0,0,0,0,0,0,0,0,0,0,0,0,0,0,0,0,0,0,0,0,0,0,0,0,0,0,0,0,0,0,0,0,0,0,0,0,0,0,0,0,0,0,0,0,0,0,0,0,0,-1.8143,-1.8146,0,-1.8396,-1.8399,-1.8402,-1.8533,-1.8534,-1.8534,-1.8534,-1.8788,-1.8794,-1.8801,0,0,0,0,0,0,0,0,0,0,0,0,0,-1.7766,-1.7772,-1.8143,-1.8146,-1.8149,-1.8396,-1.8399,-1.8403,-1.8533,-1.8534,-1.8534,-1.8534,-1.8786,-1.8793,-1.8801,0,0,0,0,0,0,0,0,0,0,0,0,0,-1.7965,-1.7774,-1.8142,-1.8244,-1.8256,-1.8395,-1.8399,-1.8404,-1.8533,-1.8534,-1.8534,-1.8534,-1.8783,-1.8793,-1.8802,-1.8858,0,0,-1.8833,-1.8837,0,0,0,0,0,0,0,0,-1.7953,-1.7979,-1.8226,-1.8238,-1.8251,-1.8434,-1.836,-1.8556,-1.8533,-1.8428,-1.8534,-1.8534,-1.8669,-1.8689,-1.8735,-1.887,-1.8881,-1.8833,-1.8839,-1.8844,-1.8847,0,0,0,0,0,0,0,-1.7939,-1.7968,-1.8243,-1.823,-1.8245,-1.8275,-1.8304,-1.8397,-1.8544,-1.8437,-1.8447,-1.8476,-1.8676,-1.8725,-1.8742,-1.8884,-1.8833,-1.8842,-1.8848,-1.8852,-1.9074,-1.9074,0,0,0,0,0,0,-1.791,-1.7956,-1.8235,-1.8251,-1.81,-1.8282,-1.8314,-1.8375,-1.8543,-1.8569,-1.8475,-1.8481,-1.8709,-1.8731,-1.8752,-1.8827,-1.8844,-1.8853,-1.8859,-1.9074,-1.9074,-1.9074,0,0,0,0,0,0,-1.7901,-1.7934,-1.8225,-1.8106,-1.8146,-1.8288,-1.8355,-1.838,-1.8429,-1.8572,-1.8598,-1.8499,-1.871,-1.8738,-1.883,-1.8837,-1.8857,-1.8866,-1.9074,-1.9074,-1.9074,-1.8976,0,0,0,0,0,0,-1.789,-1.793,-1.7954,-1.8106,-1.8152,-1.8301,-1.8356,-1.8384,-1.8447,-1.8456,-1.8602,-1.8626,-1.8712,-1.8815,-1.884,-1.8851,-1.8874,-1.9074,-1.9074,-1.9074,-1.898,-1.8973,-1.8967,0,0,0,0,0,-1.7876,-1.7916,-1.7955,-1.7988,-1.8186,-1.8301,-1.8327,-1.8427,-1.8447,-1.8471,-1.8562,-1.8621,-1.8832,-1.8823,-1.8853,-1.8867,-1.9074,-1.9074,-1.9074,-1.8982,-1.8974,-1.8968,0,0,0,0,0,0,-1.7761,-1.7938,-1.7983,-1.8074,-1.8172,-1.8323,-1.8358,-1.8416,-1.8509,-1.8514,-1.8632,-1.8664,-1.8744,-1.8815,-1.8802,-1.8928,-1.8959,-1.8964,-1.8879,-1.8873,-1.8867,-1.8848,-1.8882,0,0,0,0,0,-1.7746,-1.7828,-1.7977,-1.8043,-1.809,-1.8214,-1.8269,-1.8337,-1.8442,-1.8484,-1.8582,-1.868,-1.8769,-1.8825,-1.8914,-1.899,-1.9022,-1.9014,-1.9008,-1.9002,-1.9006,-1.9049,-1.9046,-1.9073,-1.9073,-1.9073,0,0,-1.7717,-1.7823,-1.7868,-1.8022,-1.8106,-1.8185,-1.8249,-1.833,-1.839,-1.8496,-1.859,-1.8664,-1.8782,-1.8865,-1.8907,-1.8927,-1.9005,-1.9002,-1.8996,-1.9003,-1.9048,-1.9046,-1.9043,-1.9073,-1.9073,-1.9073,0,0,-1.7703,-1.7793,-1.7857,-1.7939,-1.8065,-1.8148,-1.8162,-1.8305,-1.8359,-1.8455,-1.8536,-1.8606,-1.8756,-1.8836,-1.8896,-1.8908,-1.8965,-1.8934,-1.8902,-1.8943,-1.8941,-1.8939,-1.8942,-1.8942,-1.8937,-1.8937,-1.8937,0,-1.765,-1.7775,-1.7881,-1.7959,-1.8023,-1.8123,-1.8187,-1.8261,-1.8408,-1.845,-1.8469,-1.8658,-1.8744,-1.8847,-1.885,-1.8896,-1.8914,-1.8919,-1.8933,-1.8932,-1.8933,-1.8937,-1.8938,-1.8932,-1.8933,-1.8933,-1.8934,0,-1.7702,-1.7787,-1.7823,-1.7964,-1.8032,-1.8102,-1.8216,-1.8272,-1.8333,-1.8412,-1.8506,-1.8613,-1.8724,-1.8754,-1.8814,-1.8864,-1.8872,-1.891,-1.8944,-1.8923,-1.8929,-1.8932,-1.8925,-1.8927,-1.8928,-1.893,0,0,-1.7627,-1.7824,-1.7835,-1.7899,-1.8044,-1.811,-1.8182,-1.8293,-1.8337,-1.8434,-1.8497,-1.862,-1.8656,-1.8724,-1.8793,-1.8829,-1.883,-1.8863,-1.8868,-1.8852,-1.8889,-1.8859,-1.8859,-1.8868,-1.8869,-1.8869,-1.8879,0,-1.7633,-1.777,-1.7866,-1.7965,-1.8043,-1.8137,-1.82,-1.8294,-1.8369,-1.8444,-1.8526,-1.8611,-1.8653,-1.8694,-1.8733,-1.8821,-1.8838,-1.8822,-1.8925,-1.8927,-1.8893,-1.8863,-1.8832,-1.8836,-1.8882,-1.8882,-1.8883,0,-1.7661,-1.7755,-1.7862,-1.7996,-1.8032,-1.8087,-1.8194,-1.8265,-1.8372,-1.8424,-1.8498,-1.8569,-1.8646,-1.8672,-1.8779,-1.8765,-1.8813,-1.8862,-1.8864,-1.8878,-1.8904,-1.8874,-1.884,-1.884,-1.8888,-1.8887,-1.8887,0,-1.7593,-1.7747,-1.783,-1.7882,-1.804,-1.8076,-1.8143,-1.8251,-1.831,-1.8402,-1.8441,-1.8541,-1.8595,-1.867,-1.8764,-1.8775,-1.8861,-1.8895,-1.8904,-1.8902,-1.8919,-1.8916,-1.8891,-1.8949,-1.8949,-1.8949,-1.8949,0,-1.759,-1.7651,-1.7802,-1.7853,-1.7922,-1.803,-1.8096,-1.8171,-1.8265,-1.833,-1.8417,-1.8476,-1.8598,-1.8671,-1.8745,-1.8821,-1.8845,-1.8887,-1.8906,-1.888,-1.8874,-1.8913,-1.8914,-1.895,-1.895,-1.8949,-1.8949,0,-1.7528,-1.7631,-1.7727,-1.7869,-1.7905,-1.795,-1.807,-1.8122,-1.82,-1.8281,-1.8306,-1.8429,-1.8519,-1.8621,-1.8744,-1.8794,-1.8864,-1.8893,-1.8829,-1.884,-1.8843,-1.884,-1.8841,-1.8845,-1.89,-1.8899,-1.8899,0,-1.752,-1.7569,-1.7715,-1.7765,-1.783,-1.791,-1.7971,-1.8077,-1.8136,-1.826,-1.8295,-1.8392,-1.8475,-1.8614,-1.8713,-1.8807,-1.8837,-1.8831,-1.8852,-1.8822,-1.8836,-1.8831,-1.8836,-1.8824,-1.8823,-1.8822,-1.8822,0,-1.7494,-1.7541,-1.7626,-1.7727,-1.7797,-1.7882,-1.797,-1.8005,-1.8129,-1.819,-1.8283,-1.8348,-1.8473,-1.8567,-1.8673,-1.874,-1.88,-1.8814,-1.8821,-1.8794,-1.8754,-1.8775,-1.8812,-1.8814,-1.8814,-1.8815,-1.8815,-1.8816,-1.7458,-1.7505,-1.7614,-1.7705,-1.7782,-1.7861,-1.7916,-1.8,-1.8081,-1.8192,-1.8249,-1.834,-1.8443,-1.8592,-1.8656,-1.8728,-1.8748,-1.8758,-1.8761,-1.8762,-1.8753,-1.8743,-1.8748,-1.8748,-1.8748,-1.8749,-1.8749,0,-1.7436,-1.751,-1.7592,-1.7712,-1.7782,-1.7833,-1.7932,-1.7987,-1.8067,-1.8158,-1.8237,-1.8342,-1.8433,-1.8538,-1.8634,-1.8671,-1.8701,-1.8693,-1.8691,-1.8705,-1.8731,-1.8715,-1.8667,-1.8667,-1.8667,-1.8667,-1.8667,-1.8667,-1.7433,-1.7514,-1.7574,-1.7693,-1.7767,-1.7858,-1.791,-1.7982,-1.8055,-1.8169,-1.8245,-1.8313,-1.8409,-1.8512,-1.8597,-1.8625,-1.8656,-1.8639,-1.8675,-1.8697,-1.8704,-1.871,-1.8696,-1.8645,-1.8645,-1.8644,-1.8644,-1.8644]},{"header":{"parameterUnit":"m.s-1","parameterCategory":1,"la1":30.2991,"la2":30.254,"lo1":-89.0895,"lo2":-89.0444,"dy":0.0017,"dx":0.0017,"nx":28,"ny":28,"refTime":"2026-02-15T03:00:00:Z","depth":0,"parameterNumber":3,"parameterNumberName":"V-component_of_WINDS"},"data":[0,0,0,0,0,0,0,0,0,0,0,0,0,0,0,0,0,0,0,0,0,0,0,0,0,0,0,0,0,0,0,0,0,0,0,0,0,0,0,0,0,0,0,0,0,0,0,0,0,0,0,0,0,0,0,0,0,0,5.2411,5.2412,0,5.2472,5.2473,5.2473,5.2426,5.2424,5.2422,5.242,5.2478,5.2481,5.2484,0,0,0,0,0,0,0,0,0,0,0,0,0,5.225,5.2253,5.2411,5.2412,5.2412,5.2472,5.2473,5.2474,5.2426,5.2424,5.2421,5.2419,5.2476,5.2481,5.2485,0,0,0,0,0,0,0,0,0,0,0,0,0,5.2316,5.2254,5.2411,5.2396,5.2395,5.2472,5.2473,5.2474,5.2427,5.2424,5.2421,5.2418,5.2475,5.248,5.2485,5.2578,0,0,5.2501,5.2503,0,0,0,0,0,0,0,0,5.2313,5.2322,5.2397,5.2397,5.2397,5.2438,5.2437,5.2509,5.2428,5.2415,5.242,5.2416,5.2467,5.2472,5.249,5.258,5.2583,5.2501,5.2504,5.2507,5.2508,0,0,0,0,0,0,0,5.2308,5.2319,5.2435,5.2399,5.2398,5.2386,5.2392,5.2451,5.2457,5.2416,5.2412,5.2421,5.2466,5.2485,5.2491,5.2584,5.2501,5.2506,5.2509,5.2511,5.2757,5.2761,0,0,0,0,0,0,5.2305,5.2316,5.2433,5.2437,5.2346,5.2391,5.2398,5.2428,5.2456,5.2458,5.2423,5.2418,5.2478,5.2485,5.2493,5.2607,5.2507,5.2511,5.2514,5.2754,5.2758,5.2762,0,0,0,0,0,0,5.2302,5.2316,5.243,5.2376,5.2389,5.2397,5.2431,5.2431,5.2451,5.2462,5.2462,5.2442,5.2476,5.2486,5.2559,5.2608,5.2514,5.2518,5.275,5.2755,5.276,5.2834,0,0,0,0,0,0,5.2298,5.2315,5.2351,5.2377,5.2392,5.2496,5.2434,5.2434,5.246,5.2454,5.248,5.2481,5.2474,5.2551,5.2564,5.2614,5.2522,5.2745,5.2752,5.2758,5.2827,5.2841,5.2853,0,0,0,0,0,5.2292,5.2367,5.2353,5.2368,5.2437,5.2499,5.2508,5.25,5.2464,5.2501,5.2508,5.248,5.26,5.2559,5.2573,5.2625,5.2742,5.275,5.2758,5.2821,5.2838,5.2853,0,0,0,0,0,0,5.2345,5.237,5.2355,5.2441,5.2469,5.2491,5.2536,5.2517,5.2554,5.2547,5.2533,5.254,5.2617,5.2627,5.2581,5.2718,5.2666,5.2677,5.2709,5.2725,5.2738,5.2735,5.2527,0,0,0,0,0,5.2367,5.2416,5.2435,5.2509,5.2524,5.2528,5.2554,5.2546,5.2573,5.2584,5.2597,5.2623,5.2667,5.2696,5.2737,5.2828,5.2834,5.2871,5.2883,5.2894,5.2905,5.2957,5.2975,5.2788,5.2787,5.2787,0,0,5.2412,5.2432,5.2463,5.252,5.254,5.2592,5.2538,5.2593,5.2631,5.2591,5.2663,5.2673,5.2702,5.2785,5.2822,5.2796,5.2958,5.2904,5.2912,5.2917,5.2967,5.2985,5.3001,5.2793,5.2792,5.2791,0,0,5.2522,5.2541,5.2607,5.2629,5.2662,5.2665,5.2681,5.2707,5.2713,5.2785,5.2758,5.2801,5.2876,5.29,5.2921,5.3043,5.302,5.3056,5.3125,5.3176,5.3191,5.3204,5.3252,5.3268,5.3066,5.3066,5.3066,0,5.2574,5.2651,5.2642,5.2702,5.2729,5.2698,5.2766,5.2787,5.283,5.2849,5.282,5.2917,5.2933,5.3024,5.3054,5.3071,5.309,5.3054,5.319,5.3203,5.3215,5.326,5.3278,5.307,5.307,5.3069,5.3069,0,5.2715,5.277,5.2819,5.2866,5.2898,5.296,5.2961,5.2994,5.2984,5.299,5.3064,5.3083,5.313,5.315,5.3138,5.324,5.3223,5.3192,5.3139,5.3238,5.328,5.3297,5.3077,5.3075,5.3074,5.3073,0,0,5.286,5.2904,5.2923,5.2945,5.298,5.3022,5.3083,5.3131,5.3162,5.3192,5.3246,5.3311,5.3284,5.3308,5.3299,5.3344,5.3445,5.3308,5.3308,5.3336,5.3562,5.3589,5.3609,5.3429,5.3432,5.3434,5.3561,0,5.2975,5.3086,5.3081,5.3185,5.3237,5.3209,5.3263,5.3291,5.3298,5.3342,5.3349,5.3398,5.3356,5.3371,5.3414,5.3424,5.3491,5.3414,5.348,5.3482,5.3478,5.363,5.3657,5.3776,5.3577,5.358,5.3582,0,5.3124,5.3165,5.3275,5.3306,5.3327,5.3376,5.3422,5.3464,5.3495,5.3497,5.3527,5.3511,5.3574,5.3518,5.3606,5.3554,5.3581,5.3589,5.3594,5.3602,5.3541,5.3647,5.3813,5.3833,5.3607,5.3605,5.3603,0,5.3224,5.3305,5.3383,5.3402,5.344,5.3476,5.3492,5.352,5.3551,5.3589,5.3609,5.3654,5.3679,5.3713,5.3711,5.367,5.3802,5.3744,5.3807,5.3808,5.3838,5.3837,5.4016,5.3849,5.3849,5.3848,5.3848,0,5.3355,5.3425,5.343,5.3478,5.3555,5.3548,5.3624,5.3637,5.3663,5.3713,5.3689,5.3737,5.3728,5.3776,5.3773,5.3849,5.3859,5.3864,5.3863,5.3868,5.3869,5.3888,5.3881,5.3853,5.3852,5.3851,5.385,0,5.3482,5.3487,5.3571,5.36,5.3609,5.3666,5.3691,5.3736,5.3742,5.3806,5.382,5.383,5.3885,5.3885,5.3946,5.3944,5.4039,5.4026,5.403,5.4029,5.4093,5.4089,5.4294,5.4322,5.4133,5.4134,5.4136,0,5.3567,5.362,5.3657,5.3691,5.3711,5.3763,5.3796,5.3791,5.3825,5.3866,5.3908,5.3961,5.4003,5.4092,5.4104,5.4152,5.4143,5.4211,5.4149,5.4155,5.4149,5.4148,5.4155,5.4224,5.4226,5.4228,5.4229,0,5.3719,5.372,5.3768,5.3819,5.3859,5.3897,5.3933,5.3961,5.396,5.4,5.4057,5.4091,5.4156,5.421,5.4256,5.4272,5.4253,5.4248,5.4266,5.4274,5.4276,5.428,5.4067,5.4244,5.4243,5.4242,5.4241,5.424,5.3831,5.3879,5.3914,5.3969,5.3996,5.4031,5.4077,5.409,5.4138,5.4193,5.4186,5.4251,5.4283,5.4344,5.4364,5.4415,5.4391,5.4416,5.4423,5.443,5.444,5.4265,5.4423,5.4422,5.4422,5.4421,5.4421,0,5.3986,5.4008,5.4058,5.4111,5.4155,5.4133,5.4172,5.421,5.4269,5.4301,5.4345,5.4412,5.4465,5.4482,5.4533,5.4571,5.4563,5.4585,5.4584,5.4589,5.4455,5.4437,5.4591,5.4591,5.4591,5.4591,5.4591,5.4591,5.4072,5.4154,5.4159,5.4255,5.4275,5.4341,5.4366,5.4398,5.4424,5.4502,5.4547,5.4558,5.4585,5.4638,5.4686,5.469,5.4712,5.4739,5.4739,5.4614,5.4598,5.4581,5.4564,5.4742,5.4742,5.4868,5.4869,5.487]}]]